Regional Weather Roundup
Issued by NWS

Home | Current Version | Previous Version | Graphics & Text | Print | Product List | Glossary On
Versions: 1 2 3 4 5 6 7 8 9 10 11 12 13 14 15 16 17 18 19 20 21 22 23 24 25 26 27 28 29 30 31 32 33 34 35 36 37 38 39 40 41 42 43 44 45 46 47 48 49 50
000
ASUS43 KTOP 020308
RWRKS

WEATHER ROUNDUP FOR KANSAS
NATIONAL WEATHER SERVICE GOODLAND KS
900 PM CST SUN MAR 01 2015

NOTE:  "FAIR" INDICATES FEW OR NO CLOUDS BELOW 12,000 FEET WITH NO
SIGNIFICANT WEATHER AND/OR OBSTRUCTIONS TO VISIBILITY.

KSZ001>006-013>018-027>032-041>047-020400-
NORTHWEST KANSAS

CITY           SKY/WX    TMP DP  RH WIND       PRES   REMARKS
GOODLAND       CLOUDY    30  23  75 S5        30.33R
HAYS           MOCLDY    27  14  59 W3        30.40S
HILL CITY      CLOUDY    31  20  63 SW7       30.40R
RUSSELL        PTCLDY    27  20  75 SE5       30.39R
$$

KSZ061>065-074>080-084>089-020400-
SOUTHWEST KANSAS

CITY           SKY/WX    TMP DP  RH WIND       PRES   REMARKS
DODGE CITY     PTCLDY    24  18  77 NE5       30.38R
ELKHART          N/A     26  22  85 NE2         N/A
GARDEN CITY    MOCLDY    24  20  84 CALM      30.37R
GREAT BEND     MOCLDY    25  18  74 CALM      30.41F
LIBERAL        CLOUDY    28  19  69 NE3       30.38R
PRATT          PTCLDY    28  21  74 N3        30.42R
$$

KSZ066>073-081>083-090>101-020400-
SOUTHEAST KANSAS

CITY           SKY/WX    TMP DP  RH WIND       PRES   REMARKS
CHANUTE        FAIR      22  19  89 CALM      30.45R
COFFEYVILLE    PTCLDY    26  21  81 N6        30.46R
HUTCHINSON     PTCLDY    24  19  81 CALM      30.43R
MEDICINE LODGE   N/A     27  21  78 CALM      30.43R
NEWTON         PTCLDY    23  16  74 CALM      30.44R
PARSONS        PTCLDY    25  20  81 CALM      30.46R
WICHITA INTL   MOCLDY    25  18  74 CALM      30.44R
WICHITA JABRA  PTCLDY    25  19  78 N3        30.43R
WICHITA MCCONL MOCLDY    26  19  76 N2        30.44R
WINFIELD       PTCLDY    22  18  85 N3        30.46R
$$

KSZ007>012-019>026-033>040-048>060-102>105-020400-
NORTHEAST KANSAS

CITY           SKY/WX    TMP DP  RH WIND       PRES   REMARKS
CONCORDIA      MOCLDY    28  20  71 S8        30.42R
EMPORIA        PTCLDY    27  20  75 NE3       30.43R
LAWRENCE       CLEAR     24  19  81 CALM      30.46R
MANHATTAN      CLEAR     24  20  84 CALM      30.45R
MARYSVILLE     CLOUDY    30  23  74 S3        30.41S
OLATHE IND     CLEAR     24  19  81 N3        30.45R
OLATHE EXE     PTCLDY    27  18  69 CALM      30.43R
SALINA         CLEAR     25  20  81 S5        30.45R
TOPEKA BILLARD PTCLDY    26  21  81 CALM      30.45S
TOPEKA FORBES  CLEAR     25  19  78 CALM      30.44R
$$



USA.gov is the U.S. government's official web portal to all federal, state and local government web resources and services.